Regional Weather Roundup
Issued by NWS

Home | Current Version | Previous Version | Graphics & Text | Print | Product List | Glossary On
Versions: 1 2 3 4 5 6 7 8 9 10 11 12 13 14 15 16 17 18 19 20 21 22 23 24 25 26 27
000
ASUS45 KTFX 221010
RWRMT
MONTANA REGIONAL WEATHER ROUNDUP
NATIONAL WEATHER SERVICE GREAT FALLS MT
400 AM MDT SAT APR 22 2017

NOTE: "FAIR" INDICATES FEW OR NO CLOUDS BELOW 12000 FEET WITH NO
SIGNIFICANT WEATHER AND/OR OBSTRUCTIONS TO VISIBILITY.

MTZ001>007-043-221100-
WEST OF THE DIVIDE

CITY           SKY/WX    TMP DP  RH WIND       PRES   REMARKS
KALISPELL        N/A     31  31 100 CALM      30.24F
MISSOULA         N/A     33  30  88 N6        30.28S WCI  28
BUTTE          MOCLDY    30  26  85 S3        30.28F
MULLAN PASS      N/A     31  28  89 SE9       30.18F WCI  23
ANACONDA         N/A     30  27  86 SW8       30.28F WCI  23
DEER LODGE       N/A     28  27  93 CALM      30.30F
EUREKA           N/A     34  30  86 CALM      30.25S
HAMILTON         N/A     34  28  80 S3        30.27F
LIBBY            N/A     34  32  93 CALM      30.23F
PLAINS           N/A     34  30  85 CALM      30.24F
RONAN            N/A     32  29  89 N1        30.25F
$$

MTZ008-052>055-221100-
SOUTHWEST MONTANA

CITY           SKY/WX    TMP DP  RH WIND       PRES   REMARKS
BOZEMAN        CLOUDY    35  33  92 CALM      30.30R
DILLON         CLOUDY    30  27  88 S5        30.27F
W YELLOWSTONE  CLOUDY    23  21  93 S3        30.27S
ENNIS          CLOUDY    34  32  93 CALM      30.33S
THREE FORKS      N/A     36  36 100 CALM      30.26S
TWIN BRIDGES     N/A     33  26  76 E2        30.23F
$$

MTZ009-010-012-014-046-048-049-054-221100-
EAST SLOPES AND CENTRAL MONTANA

CITY           SKY/WX    TMP DP  RH WIND       PRES   REMARKS
CUT BANK       CLOUDY    34  32  92 W3        30.26F
GREAT FALLS    CLOUDY    38  36  92 SW8       30.29S
MALMSTROM AFB  CLOUDY    39  39 100 SW9       30.29S
HELENA         CLOUDY    41  34  76 SW5       30.30S
AUGUSTA        MOCLDY    33  32  96 CALM      30.27F
BOWMANS CRNR   MOCLDY    34  34  99 S7        30.26F WCI  28
CHOTEAU          N/A     36  32  87 SW5       30.29F
FAIRFIELD      MOCLDY    35  32  88 CALM      30.27F
POWER          MOCLDY    36  35  99 SW7       30.27S WCI  30
RAYNESFORD     MOCLDY    37  37  98 CALM      30.28F
ULM            CLOUDY    39  38  96 SW3       30.29F
$$

MTZ011-013-016-021-045-047-050-051-221100-
NORTH CENTRAL MONTANA

CITY           SKY/WX    TMP DP  RH WIND       PRES   REMARKS
HAVRE          CLOUDY    43  38  82 W5        30.27F
LEWISTOWN      CLOUDY    37  36  96 W5        30.27S FOG
N BAR RANCH    CLOUDY    37  34  87 W7        30.26F
CHINOOK          N/A     43  39  87 CALM      30.27F
DENTON         LGT RAIN  39  37  95 NW14G22   30.24F WCI  30
GEYSER         CLOUDY    37  35  92 W15       30.26F WCI  28
GRASS RANGE    CLOUDY    39  37  93 W17       30.23S WCI  30
JUDITH GAP     MOCLDY    35  33  93 N14       30.25S WCI  26
STANFORD       CLOUDY    37  34  89 W6        30.26F
WINIFRED       MOCLDY    38  38  98 W8        30.26S FOG
$$

MTZ017>020-022>027-061-062-221100-
NORTHEAST MONTANA

CITY           SKY/WX    TMP DP  RH WIND       PRES   REMARKS
GLASGOW        CLOUDY    41  39  93 N10       30.21R
JORDAN           N/A     43  40  89 NW14      30.21R
SIDNEY         PTCLDY    37  35  92 SW7       30.18S WCI  32
WOLF POINT     CLEAR     41  38  89 N3        30.20R
MALTA          CLOUDY    41  37  87 NW6       30.27R
PLENTYWOOD       N/A     43  43 100 N9        30.19R
POPLAR           N/A     41  39  93 N10       30.19R
SCOBEY           N/A     42  37  82 N9        30.17S
$$

MTZ028>42-056>058-221100-
SOUTHCENTRAL AND SOUTHEAST MONTANA

CITY           SKY/WX    TMP DP  RH WIND       PRES   REMARKS
BAKER          CLOUDY    34  31  88 S6        30.20S WCI  29
BILLINGS       CLOUDY    42  39  89 SW6       30.25S
LIVINGSTON     CLOUDY    37  32  82 W8        30.27S WCI  31
MILES CITY     PTCLDY    43  40  89 NW10      30.21R
BIG TIMBER     CLEAR     36  30  80 W12G17    30.28S WCI  27
EKALAKA          N/A     39  34  82 SW2       30.17S
LAUREL           N/A     41  36  82 CALM      30.22F
ROUNDUP          N/A     41  36  82 SW5       30.14S
$$

REGIONAL REPORTS...DAKOTAS

CITY           SKY/WX    TMP DP  RH WIND       PRES   REMARKS
WILLISTON      CLEAR     40  35  83 CALM      30.16F
MINOT          PTCLDY    47  37  68 SW12      30.16R
DICKINSON      CLOUDY    35  32  88 SW10      30.18S WCI  27
BEACH            N/A     34  34 100 CALM      30.23R
TIOGA            N/A     37  37 100 VRB3      30.17S
WATFORD CITY     N/A     37  36  93 SW5       30.17F
BISMARCK       CLEAR     36  33  89 CALM      30.23S
GRAND FORKS    CLOUDY    47  40  76 SW10      30.17S
FARGO          CLEAR     39  37  92 SW7       30.22R
BUFFALO SD       N/A     41  35  79 S7        30.14S
RAPID CITY     CLOUDY    36  31  82 SE6       30.24R WCI  31
$$

REGIONAL REPORTS...WYOMING/IDAHO/WASHINGTON

CITY           SKY/WX    TMP DP  RH WIND       PRES   REMARKS
GILLETTE       CLOUDY    41  41 100 N3        30.23R
SHERIDAN       CLOUDY    39  37  92 S5        30.25R
BUFFALO WY     CLOUDY    38  35  89 NW8       30.23S
CODY           CLOUDY    36  35  96 SE3       30.25S
YELLOWSTONE LA   N/A     18  16  92 CALM      30.26S
IDAHO FALLS    CLEAR     30  29  96 CALM      30.27F
SALMON         CLOUDY    28  25  86 CALM      30.27F
BOISE            N/A     45  31  58 SE13      30.16F
SPOKANE        MOCLDY    42  33  70 E3        30.14F
$$

REGIONAL REPORTS...ALBERTA

CITY           SKY/WX    TMP DP  RH WIND       PRES   REMARKS
EDMONTON       CLOUDY    34  32  93 E10       30.26F WCI  26
CALGARY        PTCLDY    30  27  86 S9        30.18F WCI  22
LETHBRIDGE     CLEAR     28  27  93 S7        30.24F WCI  21
MEDICINE HAT     N/A     28  28 100 S7        30.26F FOG     WCI  21
WATERTON GATE    N/A     32  28  86 S9          N/A  WCI  24
MILK RIVER       N/A     27  27 100 W5          N/A
$$

REGIONAL REPORTS...SASKATCHEWAN

CITY           SKY/WX    TMP DP  RH WIND       PRES   REMARKS
SWIFT CURRENT  CLOUDY    36  36 100 CALM      30.25F
REGINA         LGT RAIN  39  37  93 N12       30.24S WCI  32
SASKATOON      CLEAR     25  21  86 N9        30.33R WCI  15
CYPRESS HILLS    N/A     34  32  93 S2          N/A
VAL MARIE        N/A     39  36  87 N10         N/A
ROCKGLEN         N/A     37  36  93 N14         N/A  WCI  29
ASSINIBOIA       N/A     32  32 100 SE6         N/A  WCI  26
$$




USA.gov is the U.S. government's official web portal to all federal, state and local government web resources and services.